Regional Weather Roundup
Issued by NWS

Home | Current Version | Previous Version | Graphics & Text | Print | Product List | Glossary On
Versions: 1 2 3 4 5 6 7 8 9 10 11 12 13 14 15 16 17 18 19 20 21 22 23 24 25 26 27 28 29 30 31 32 33 34 35 36 37 38 39 40 41 42 43 44 45 46 47 48 49 50
000
ASUS43 KOAX 171410
RWRNE

WEATHER ROUNDUP FOR NEBRASKA
NATIONAL WEATHER SERVICE OMAHA NE
800 AM CST SAT FEB 17 2018

NOTES: SATELLITE DATA IS BEING USED TO AUGMENT CLOUD COVER ABOVE
       12000 FEET.
       "FAIR" INDICATES FEW OR NO CLOUDS BELOW 12,000 FEET WITH NO
       SIGNIFICANT WEATHER AND/OR OBSTRUCTIONS TO VISIBILITY.


NEZ001>004-019>022-054>056-171500-
NEBRASKA PANHANDLE

CITY           SKY/WX    TMP DP  RH WIND       PRES   REMARKS
SCOTTSBLUFF    CLEAR     27  16  63 W6        29.99R WCI  20
ALLIANCE       PTCLDY    21  15  78 W9        29.96R WCI  11
CHADRON        CLEAR     22  14  71 W23       29.96R WCI   6
GORDON         FAIR      19  13  80 W8        29.92R WCI   8
KIMBALL        CLEAR     31  14  48 NW25G31   29.97S WCI  18
SIDNEY         CLEAR     32  16  51 NW23      29.97R WCI  19
$$

NEZ057>060-069>072-079>082-171500-
SOUTHWEST NEBRASKA

CITY           SKY/WX    TMP DP  RH WIND       PRES   REMARKS
NORTH PLATTE   CLEAR     25  20  81 W5        29.96R WCI  19
IMPERIAL       CLEAR     27  20  75 W10       30.00R WCI  17
LEXINGTON      CLEAR     22  18  84 W8        29.97R WCI  13
MCCOOK         CLEAR     30  21  69 W9        29.98R WCI  22
OGALLALA       CLEAR     28  20  71 NW5       29.97R WCI  23
$$

NEZ005>010-023>029-035>040-094-171500-
NORTH CENTRAL NEBRASKA

CITY           SKY/WX    TMP DP  RH WIND       PRES   REMARKS
VALENTINE      CLEAR     23  18  81 W6        29.92R WCI  16
AINSWORTH      CLEAR     23  21  91 CALM      29.92R
BROKEN BOW     CLEAR     29  22  75 NW14      29.93R WCI  18
O`NEILL        CLEAR     26  23  87 W7        29.91R WCI  18
ORD            CLEAR     27  22  81 W8        29.93R WCI  19
THEDFORD         N/A     26  22  86 W9        29.94R WCI  16
$$

NEZ041-046>049-061>064-073>077-083>087-171500-
SOUTH CENTRAL NEBRASKA

CITY           SKY/WX    TMP DP  RH WIND       PRES   REMARKS
GRAND ISLAND   PTCLDY    28  20  71 W16       29.94R WCI  16
AURORA         PTCLDY    29  20  71 W20G28    29.92R WCI  16
HASTINGS       CLEAR     26  18  71 W16       29.95R WCI  14
HEBRON         PTCLDY    27  18  68 W7        29.94R WCI  20
HOLDREGE       CLEAR     24  20  85 NW8       29.97R WCI  15
KEARNEY        CLEAR     25  20  81 NW12      29.97R WCI  14
YORK           CLOUDY    27  23  86 W13       29.92R WCI  16
$$

NEZ011>018-030>034-042>045-171500-
NORTHEAST NEBRASKA

CITY           SKY/WX    TMP DP  RH WIND       PRES   REMARKS
NORFOLK        PTCLDY    25  20  81 W7        29.89R WCI  17
ALBION         MOCLDY    30  23  75 NW12      29.91R WCI  20
BLAIR          CLOUDY    31  20  63 SW10      29.90R WCI  22
COLUMBUS       CLOUDY    28  20  71 W9        29.92R WCI  19
FREMONT        CLOUDY    29  19  67 SW3       29.91R
TEKAMAH        LGT SNOW  28  20  71 SW7       29.91R WCI  21
WAYNE          CLOUDY    26  24  93 W6        29.90R WCI  20
$$

NEZ050>053-065>068-078-088>093-171500-
SOUTHEAST NEBRASKA

CITY           SKY/WX    TMP DP  RH WIND       PRES   REMARKS
LINCOLN        CLOUDY    29  17  61 W9        29.93R WCI  20
OMAHA EPPLEY   CLOUDY    30  17  58 S7        29.92R WCI  23
BEATRICE       CLEAR     28  20  75 SW8       29.94R WCI  19
FALLS CITY     CLOUDY    30  15  53 SW7       29.95R WCI  23
NEBRASKA CITY  PTCLDY    30  20  66 SW9       29.93R WCI  22
PLATTSMOUTH    CLOUDY    29  20  68 S7        29.91S WCI  22
$$

NEZ044-045-051>053-067-171500-
OMAHA AREA

CITY           SKY/WX    TMP DP  RH WIND       PRES   REMARKS
OMAHA EPPLEY   CLOUDY    30  17  58 S7        29.92R WCI  23
BLAIR          CLOUDY    31  20  63 SW10      29.90R WCI  22
FREMONT        CLOUDY    29  19  67 SW3       29.91R
MILLARD        CLOUDY    32  19  59 SW5       29.92R WCI  27
OFFUTT AFB     CLOUDY    28  18  66 S3        29.92R
PLATTSMOUTH    CLOUDY    29  20  68 S7        29.91S WCI  22
WAHOO          CLOUDY    30  19  62 W9        29.91R WCI  22
$$



USA.gov is the U.S. government's official web portal to all federal, state and local government web resources and services.